Preview of NWS' New Version of Forecast
This preview is not operational and should not be used for support decisions.

Regional Weather Roundup (RWR)

Issued by National Weather Service (NWS)

                            
000
ASUS45 KBOI 210210
RWRID 

IDAHO REGIONAL WEATHER ROUNDUP
NATIONAL WEATHER SERVICE BOISE ID
700 PM MST WED FEB 20 2019

NOTE: "FAIR" INDICATES FEW OR NO CLOUDS BELOW 12000 FEET
WITH NO SIGNIFICANT WEATHER AND/OR OBSTRUCTIONS TO VISIBILITY

IDZ012-014-210300-
SOUTHWEST IDAHO

  
CITY           SKY/WX    TMP DP  RH WIND       PRES   REMARKS
BOISE          MOCLDY    27  24  89 SE5       29.66R WCI  22          
CALDWELL       MOCLDY    30  27  88 NW3       29.69R                  
MOUNTAIN HOME  CLEAR     29  29 100 CALM      29.67R                  
$$

IDZ016-017-210300-
SOUTHCENTRAL IDAHO

  
CITY           SKY/WX    TMP DP  RH WIND       PRES   REMARKS
BURLEY         PTCLDY    22  19  89 CALM      29.62R                  
JEROME         CLOUDY    25  20  81 NE12      29.63R WCI  14          
TWIN FALLS     LGT SNOW  26  24  92 E9        29.62R VSB 1   WCI  17  
$$

IDZ019>023-210300-
SOUTHEAST IDAHO

  
CITY           SKY/WX    TMP DP  RH WIND       PRES   REMARKS
IDAHO FALLS    MOCLDY    15  10  80 CALM      29.67R                  
POCATELLO      PTCLDY    13  11  92 NE6       29.66R WCI   4          
REXBURG        CLOUDY    20  13  74 CALM      29.66R                  
$$

IDZ006-010-011-018-031-032-210300-
CENTRAL IDAHO MOUNTAINS

  
CITY           SKY/WX    TMP DP  RH WIND       PRES   REMARKS
MCCALL         PTCLDY    16  12  84 CALM      29.56R                  
HAILEY         MOCLDY    18  10  73 CALM      29.61R                  
STANLEY          N/A     15   7  70 S3        29.52R                  
SALMON         CLOUDY    19  14  81 SE5       29.64R WCI  12          
CHALLIS        MOCLDY    15   8  73 CALM      29.57R                  
$$

IDZ002-004-006-007-026-210300-
NORTHERN IDAHO

  
CITY           SKY/WX    TMP DP  RH WIND       PRES   REMARKS
LEWISTON       LGT SNOW  27  23  85 SW5       29.81R FOG     WCI  22  
LOWELL           N/A     32  30  92 SE5       29.77R WCI  27          
COEUR D'ALENE  PTCLDY    24  19  81 N10       29.78R WCI  14          
MULLAN PASS    CLEAR     11   7  84 CALM      29.59R                  
$$